Погода в Гудермесе

Поиск расширенной информации на нашем сайте:

Полезная информация:

Новости сайта



02.01.2020
Опубликован Долгосрочный прогноз погоды по городам России и ближнего зарубежья на январь 2020 года.
Карты: Прогноз на январь и февраль 2020 года, Сравнение прогнозируемой аномалии приземной температуры воздуха на январь 2020 года по разным моделям.




Погода в Гудермесе - сегодня

Время (UTC), дата Ветер
(°,м/с) 
Видим.   Явления Облачность Т
(°С)
Тd
(°С)
f(%) Тe
(°С)
Pmin
(гПа)
dP
(гПа)
Po
(мм)
O2
(г/м3)
Тmin Tmax R s Состояние
почвы
15 18.10.20 150 (ЮВ) 10 км    ясно 
+16.2 +12.2 77 +22  1015  0.2  755  285    +20.9       
18 18.10.20 тихо ()   10 км    ясно 
+13.5 +11.2 86 +16  1015.3  0.2  755  288           
21 18.10.20 250 (З) 10 км    ясно 
+13.3 +11.2 87 +17  1015  -0.3  755  288           
00 19.10.20 260 (З) 10 км    ясно 
+11.4 +9.8 90 +13  1015.6  0.5  755  290           
03 19.10.20 270 (З) 10 км    ясно 
+10.2 +8.1 87 +9  1017  1.4  756  292  +9.1        сухая 
06 19.10.20 270 (З) 20000 м    ясно 
+13.4 +8.7 73 +13  1017.3  0.4  756  289           
09 19.10.20 260 (З) 20000 м    ясно 
+23.2 +9.4 41 +23  1014.7  -2.3  755  279           
12 19.10.20 070 (В) 20000 м    ясно 
+24.5 +9.6 39 +25  1013.2  -1.5  753  277           
15 19.10.20 150 (ЮВ) 10 км    9/0 средняя 
[Ac lent]
+19 +9.8 55 +22  1013.7  0.3  754  282    +24.9       
18 19.10.20 270 (З) 10 км    3/0 средняя 
[Ac lent]
+14 +9.6 75 +16  1014.1  0.3  754  287           
21 19.10.20 230 (ЮЗ) 10 км    9/0 средняя 
[As trans]
+17 +9.1 60 +17  1017.2  3.2  756  285           
00 20.10.20 240 (ЮЗ) 10 км    9/0 средняя 
[As trans]
+17.3 +11.4 68 +21  1020.5  3.3  759  285           
03 20.10.20 260 (З) 10 км    9/0 средняя 
[Ac As]
+16.5 +9.7 64 +17  1023.2  2.5  761  287  +13.9        сухая 
06 20.10.20 280 (З) 20000 м    10/10 1000 м 
[Sc]
+16 +8.2 60 +16  1025.3  2.2  762  289           
09 20.10.20 310 (СЗ) 20000 м    9/9 1000 м 
[Sc]
+16.9 +9.1 60 +17  1024.5  -0.8  762  287           
12 20.10.20 010 (С) 20000 м    9/9 1000 м 
[Sc]
+16.7 +8.4 58 +18  1024.1  -0.4  761  288           
15 20.10.20 060 (СВ) 10 км    10/10 600 м 
[Sc]
+15.3 +7.4 59 +17  1024.8  0.7  762  289    +17.2       
18 20.10.20 160 (Ю) 10 км    10/10 600 м 
[Sc]
+13.8 +7.7 67 +15  1025.1  0.2  762  291           
21 20.10.20 280 (З) 10 км    10/0 средняя 
[Ac und]
+13.3 +7.7 69 +15  1025.5  0.3  762  292           
00 21.10.20 240 (ЮЗ) 10 км    10/0 средняя 
[As op]
+13.9 +7.4 65 +14  1025.9  0.5  763  291           
03 21.10.20 320 (СЗ) 10 км    10/0 средняя 
[As op]
+13.1 +7.8 70 +14  1027.5  1.6  764  292  +12.9        сухая 
06 21.10.20 280 (З) 10 км    10/10 300 м 
[Frnb]
+11.8 +7.1 73 +13  1030.6  766  295  +11.8         
09 21.10.20 240 (ЮЗ) 20000 м    9/9 600 м 
[Sc]
+14.2 +6.2 59 +15  1029.1  -1.4  765  292           
12 21.10.20 210 (ЮЗ) 20000 м    8/8 1000 м 
[Sc]
+15.7 +5.6 51 +17  1028.4  -0.7  764  290           
15 21.10.20 210 (ЮЗ) 10 км    3/0 средняя 
[Ac lent]
+13.5 +6.1 61 +14  1028.4  764  293    +16       
Время (UTC), дата Ветер
(°,м/с) 
Видим.   Явления Облачность Т
(°С)
Тd
(°С)
f(%) Тe
(°С)
Pmin
(гПа)
dP
(гПа)
Po
(мм)
O2
(г/м3)
Тmin Tmax R s Состояние
почвы

Для получения пояснительной информации подведите курсор к названию столбца.

ПОГОДА в Гудермесе - архив

Всё, что Вы хотите узнать о погоде в Гудермесе - удобно и подробно!

Выберите нужную дату (начиная с 1 января 2019* года) и нажмите кнопку "Найти".
Будут отображены архивные сводки погоды по пункту Гудермес, начиная с указанной даты.


Отображать данные в формате CSV (для использования в таблицах Excel)


Внимание! Наш архив погоды предназначен исключительно для личного некоммерческого использования в познавательных целях. Если Вам необходимы официальные справки о состоянии погоды (для производственных, юридических, коммерческих и т.п. целей), обращайтесь в органы Росгидромета.

*Примечание: данная дата относится к архиву по метеостанциям СССР (Россия, СНГ, Балтия).
Архив по метеостанциям Зарубежной Европы и Азии (кроме Китая) хранится 10 дней, по другим регионам земного шара (Китай, Африка, Америка, Австралия, Океания) - 1 день.

Гудермес - район местоположения метеостанции


Название, широта, долгота, высота метеостанции:
Гудермес 43.3°ш. 46.1°д. 75 м над ур. моря [Российская Федерация]

Дополнительная информация

В oтличие oт бoльшинства пoгoдных сайтoв мы публикуем пoдрoбную метеoинфoрмацию в детальнoм прoфессиoнальнoм фoрмате.

Характеристики температуры и влажнoсти вoздуха измеряются на высoте 2 м в тени вдали oт зданий и деревьев.
Скoрoсть ветра измеряется на высoте 10 м (на урoвне рoста челoвека скoрoсть ветра ниже в 1.5-2 раза). Если метеoстанция нахoдится в гoрoде или в лесу, тo скoрoсть ветра занижена на 2-4 м/с пo сравнению с oткрытым местoм. Скoрoсть ветра над акватoриями крупных рек и oзёр, а также на вершинах хoлмoв на 2-5 м/с выше, чем в oбычных услoвиях.
Атмoсфернoе давление в разных тoчках местнoсти мoжет значительнo oтличаться oт давления на метеoстанции, в зависимoсти oт услoвий рельефа (при пoдъёме на 10 м давление пoнижается примернo на 1 мм рт.ст.).